AAL2370 MKJP-KMIA

Flight info

Callsign AAL2370
Flight time 1h 19m
Altitude 38000
Route ALTIB UM779 ZEUSS VIICE2
Aircraft B738/M-SDE2E3FGHIRWXY/LB1

Departure

Time 2026-05-08 12:14
Airport Norman Manley International Airport (MKJP)

Arrival

Time 2026-05-08 13:33
Airport Miami International Airport (KMIA)
Time Latitude Longitude Altitude Speed Heading
2026-05-08 11:55 17.93600 -76.77947 32 ft 0 kts 294°
2026-05-08 12:08 17.93599 -76.77947 32 ft 0 kts 294°
2026-05-08 12:08 17.93595 -76.77933 32 ft 2 kts 275°
2026-05-08 12:08 17.93595 -76.77917 32 ft 2 kts 259°
2026-05-08 12:08 17.93600 -76.77902 32 ft 2 kts 240°
2026-05-08 12:09 17.93609 -76.77889 32 ft 2 kts 223°
2026-05-08 12:09 17.93621 -76.77880 32 ft 1 kts 205°
2026-05-08 12:09 17.93627 -76.77878 32 ft 1 kts 199°
2026-05-08 12:09 17.93629 -76.77877 32 ft 0 kts 200°
2026-05-08 12:11 17.93628 -76.77878 32 ft 0 kts 200°
2026-05-08 12:11 17.93584 -76.77895 32 ft 13 kts 201°
2026-05-08 12:11 17.93477 -76.77938 31 ft 17 kts 192°
2026-05-08 12:11 17.93387 -76.77869 31 ft 19 kts 113°
2026-05-08 12:12 17.93342 -76.77760 32 ft 11 kts 123°
2026-05-08 12:12 17.93273 -76.77747 32 ft 11 kts 198°
2026-05-08 12:12 17.93199 -76.77761 32 ft 11 kts 154°
2026-05-08 12:12 17.93168 -76.77670 32 ft 15 kts 76°
2026-05-08 12:13 17.93137 -76.77631 33 ft 12 kts 259°
2026-05-08 12:13 17.93179 -76.77751 32 ft 36 kts 292°
2026-05-08 12:13 17.93369 -76.78243 30 ft 108 kts 292°
2026-05-08 12:13 17.93733 -76.79182 42 ft 166 kts 292°
2026-05-08 12:14 17.94133 -76.80299 726 ft 164 kts 290°
2026-05-08 12:14 17.94534 -76.81507 1183 ft 184 kts 290°
2026-05-08 12:14 17.94952 -76.82790 1799 ft 191 kts 290°
2026-05-08 12:14 17.95609 -76.84038 2189 ft 204 kts 317°
2026-05-08 12:15 17.96873 -76.84804 2563 ft 218 kts 345°
2026-05-08 12:15 17.98383 -76.85225 3054 ft 234 kts 350°
2026-05-08 12:15 18.00034 -76.85641 3602 ft 250 kts 349°
2026-05-08 12:15 18.01763 -76.86066 4140 ft 265 kts 352°
2026-05-08 12:16 18.03627 -76.86070 4746 ft 271 kts 14°
2026-05-08 12:16 18.05467 -76.85651 5587 ft 273 kts 13°
2026-05-08 12:16 18.07387 -76.85493 6377 ft 280 kts
2026-05-08 12:16 18.09325 -76.85724 7170 ft 284 kts 351°
2026-05-08 12:17 18.11254 -76.86237 7951 ft 288 kts 346°
2026-05-08 12:17 18.13143 -76.86880 8708 ft 290 kts 343°
2026-05-08 12:17 18.15066 -76.87582 9469 ft 292 kts 342°
2026-05-08 12:17 18.16987 -76.88284 10198 ft 295 kts 343°
2026-05-08 12:18 18.18962 -76.88995 10676 ft 308 kts 343°
2026-05-08 12:18 18.21054 -76.89736 11080 ft 323 kts 343°
2026-05-08 12:18 18.23241 -76.90507 11445 ft 338 kts 343°
2026-05-08 12:18 18.25512 -76.91309 11791 ft 354 kts 343°
2026-05-08 12:19 18.27899 -76.92153 12337 ft 361 kts 343°
2026-05-08 12:19 18.30287 -76.93000 13037 ft 364 kts 343°
2026-05-08 12:19 18.32691 -76.93853 13743 ft 366 kts 344°
2026-05-08 12:19 18.35096 -76.94706 14390 ft 370 kts 344°
2026-05-08 12:20 18.37536 -76.95570 15038 ft 373 kts 345°
2026-05-08 12:20 18.40029 -76.96455 15699 ft 377 kts 345°
2026-05-08 12:20 18.42520 -76.97337 16284 ft 381 kts 345°
2026-05-08 12:20 18.45048 -76.98233 16900 ft 385 kts 345°
2026-05-08 12:21 18.47593 -76.99135 17485 ft 388 kts 345°
2026-05-08 12:21 18.50172 -77.00051 18164 ft 389 kts 345°
2026-05-08 12:21 18.52716 -77.00955 18796 ft 391 kts 345°
2026-05-08 12:21 18.55304 -77.01874 19392 ft 393 kts 345°
2026-05-08 12:22 18.57905 -77.02799 20002 ft 395 kts 345°
2026-05-08 12:22 18.60542 -77.03735 20575 ft 397 kts 344°
2026-05-08 12:22 18.63164 -77.04665 21135 ft 399 kts 344°
2026-05-08 12:22 18.65788 -77.05597 21716 ft 400 kts 344°
2026-05-08 12:23 18.68438 -77.06539 22252 ft 402 kts 344°
2026-05-08 12:23 18.71097 -77.07485 22765 ft 405 kts 344°
2026-05-08 12:23 18.73787 -77.08442 23205 ft 410 kts 343°
2026-05-08 12:23 18.76526 -77.09417 23690 ft 413 kts 343°
2026-05-08 12:24 18.79254 -77.10389 24150 ft 417 kts 343°
2026-05-08 12:24 18.81994 -77.11365 24662 ft 418 kts 343°
2026-05-08 12:24 18.84764 -77.12352 25103 ft 422 kts 343°
2026-05-08 12:24 18.87548 -77.13345 25561 ft 425 kts 343°
2026-05-08 12:25 18.90389 -77.14359 26022 ft 428 kts 343°
2026-05-08 12:25 18.93221 -77.15369 26486 ft 430 kts 343°
2026-05-08 12:25 18.96036 -77.16373 26899 ft 433 kts 343°
2026-05-08 12:25 18.98902 -77.17397 27355 ft 435 kts 343°
2026-05-08 12:26 19.01797 -77.18432 27755 ft 438 kts 343°
2026-05-08 12:26 19.04683 -77.19463 28169 ft 441 kts 343°
2026-05-08 12:26 19.07601 -77.20506 28544 ft 444 kts 343°
2026-05-08 12:26 19.10545 -77.21559 28938 ft 447 kts 342°
2026-05-08 12:27 19.13529 -77.22626 29272 ft 450 kts 342°
2026-05-08 12:27 19.16480 -77.23682 29635 ft 453 kts 342°
2026-05-08 12:27 19.19493 -77.24760 30129 ft 452 kts 342°
2026-05-08 12:27 19.22442 -77.25817 30650 ft 451 kts 342°
2026-05-08 12:28 19.25441 -77.26892 31112 ft 450 kts 342°
2026-05-08 12:28 19.28426 -77.27962 31557 ft 450 kts 342°
2026-05-08 12:28 19.31395 -77.29028 32001 ft 450 kts 342°
2026-05-08 12:28 19.34384 -77.30101 32429 ft 449 kts 342°
2026-05-08 12:29 19.37326 -77.31157 32861 ft 449 kts 342°
2026-05-08 12:29 19.40301 -77.32226 33328 ft 448 kts 342°
2026-05-08 12:29 19.43212 -77.33272 33878 ft 446 kts 342°
2026-05-08 12:29 19.46173 -77.34336 34314 ft 445 kts 341°
2026-05-08 12:30 19.49109 -77.35392 34798 ft 443 kts 341°
2026-05-08 12:30 19.52013 -77.36437 35249 ft 442 kts 341°
2026-05-08 12:30 19.54936 -77.37489 35639 ft 442 kts 341°
2026-05-08 12:30 19.57831 -77.38531 36025 ft 442 kts 341°
2026-05-08 12:31 19.60763 -77.39587 36407 ft 441 kts 341°
2026-05-08 12:31 19.63669 -77.40633 36767 ft 441 kts 341°
2026-05-08 12:31 19.66588 -77.41685 37120 ft 440 kts 341°
2026-05-08 12:31 19.69489 -77.42731 37443 ft 440 kts 341°
2026-05-08 12:32 19.72405 -77.43783 37769 ft 439 kts 341°
2026-05-08 12:32 19.75275 -77.44818 37988 ft 440 kts 341°
2026-05-08 12:32 19.81150 -77.46938 38013 ft 440 kts 341°
2026-05-08 12:33 19.86931 -77.49026 38013 ft 439 kts 341°
2026-05-08 12:33 19.92736 -77.51125 38018 ft 440 kts 341°
2026-05-08 12:34 19.98505 -77.53213 38027 ft 440 kts 341°
2026-05-08 12:34 20.04324 -77.55321 38029 ft 439 kts 341°
2026-05-08 12:35 20.10108 -77.57416 38023 ft 438 kts 341°
2026-05-08 12:35 20.15886 -77.59512 38017 ft 438 kts 341°
2026-05-08 12:36 20.21695 -77.61620 38017 ft 439 kts 341°
2026-05-08 12:36 20.27454 -77.63711 38014 ft 438 kts 341°
2026-05-08 12:37 20.33247 -77.65817 38012 ft 437 kts 340°
2026-05-08 12:37 20.39007 -77.67913 38013 ft 437 kts 340°
2026-05-08 12:38 20.44757 -77.70007 38013 ft 436 kts 340°
2026-05-08 12:38 20.50496 -77.72098 38013 ft 437 kts 340°
2026-05-08 12:39 20.56263 -77.74201 38012 ft 437 kts 340°
2026-05-08 12:39 20.62014 -77.76299 38011 ft 436 kts 340°
2026-05-08 12:40 20.67770 -77.78402 38011 ft 436 kts 340°
2026-05-08 12:40 20.73512 -77.80502 38011 ft 435 kts 340°
2026-05-08 12:41 20.79273 -77.82609 38014 ft 435 kts 340°
2026-05-08 12:41 20.84973 -77.84695 38012 ft 434 kts 340°
2026-05-08 12:42 20.90717 -77.86800 38017 ft 434 kts 340°
2026-05-08 12:42 20.96446 -77.88902 38018 ft 434 kts 340°
2026-05-08 12:43 21.02135 -77.90990 38018 ft 433 kts 340°
2026-05-08 12:43 21.07861 -77.93093 38019 ft 433 kts 340°
2026-05-08 12:44 21.13593 -77.95200 38021 ft 434 kts 340°
2026-05-08 12:44 21.19321 -77.97307 38021 ft 434 kts 340°
2026-05-08 12:45 21.25020 -77.99405 38025 ft 433 kts 340°
2026-05-08 12:45 21.30723 -78.01506 38026 ft 433 kts 340°
2026-05-08 12:46 21.36425 -78.03610 38028 ft 433 kts 340°
2026-05-08 12:46 21.42150 -78.05723 38029 ft 433 kts 340°
2026-05-08 12:47 21.47845 -78.07827 38032 ft 433 kts 340°
2026-05-08 12:47 21.53540 -78.09933 38036 ft 433 kts 340°
2026-05-08 12:48 21.59257 -78.12048 38036 ft 434 kts 340°
2026-05-08 12:48 21.64970 -78.14164 38037 ft 433 kts 340°
2026-05-08 12:49 21.70692 -78.16285 38034 ft 433 kts 340°
2026-05-08 12:49 21.76385 -78.18398 38037 ft 434 kts 340°
2026-05-08 12:50 21.82130 -78.20531 38035 ft 433 kts 340°
2026-05-08 12:50 21.87807 -78.22640 38031 ft 433 kts 340°
2026-05-08 12:51 21.96371 -78.25825 38032 ft 433 kts 340°
2026-05-08 12:52 22.02082 -78.27952 38031 ft 434 kts 340°
2026-05-08 12:52 22.10665 -78.31151 38033 ft 433 kts 340°
2026-05-08 12:53 22.16373 -78.33282 38030 ft 433 kts 340°
2026-05-08 12:53 22.22060 -78.35406 38032 ft 434 kts 340°
2026-05-08 12:54 22.27789 -78.37547 38030 ft 432 kts 340°
2026-05-08 12:54 22.33459 -78.39669 38029 ft 432 kts 340°
2026-05-08 12:55 22.39143 -78.41799 38030 ft 431 kts 340°
2026-05-08 12:55 22.44830 -78.43930 38031 ft 431 kts 340°
2026-05-08 12:56 22.50508 -78.46059 38030 ft 431 kts 340°
2026-05-08 12:56 22.56195 -78.48195 38031 ft 431 kts 340°
2026-05-08 12:57 22.61859 -78.50324 38029 ft 430 kts 340°
2026-05-08 12:57 22.67524 -78.52454 38030 ft 430 kts 340°
2026-05-08 12:58 22.73177 -78.54585 38030 ft 429 kts 339°
2026-05-08 12:58 22.78833 -78.56574 38030 ft 430 kts 344°
2026-05-08 12:59 22.84725 -78.57875 38030 ft 431 kts 348°
2026-05-08 12:59 22.90656 -78.58942 38030 ft 431 kts 349°
2026-05-08 13:00 22.96593 -78.60001 38030 ft 431 kts 349°
2026-05-08 13:00 23.02490 -78.61081 38029 ft 430 kts 348°
2026-05-08 13:01 23.08390 -78.62180 38029 ft 430 kts 348°
2026-05-08 13:01 23.14302 -78.63293 38029 ft 431 kts 348°
2026-05-08 13:02 23.20206 -78.64407 38029 ft 430 kts 348°
2026-05-08 13:02 23.26124 -78.65524 38029 ft 430 kts 348°
2026-05-08 13:03 23.32017 -78.66637 38029 ft 430 kts 348°
2026-05-08 13:03 23.37937 -78.67757 38029 ft 429 kts 348°
2026-05-08 13:04 23.43849 -78.68878 38029 ft 430 kts 348°
2026-05-08 13:04 23.49714 -78.69991 38029 ft 431 kts 348°
2026-05-08 13:05 23.55621 -78.71112 38029 ft 431 kts 348°
2026-05-08 13:05 23.61530 -78.72235 38029 ft 431 kts 348°
2026-05-08 13:06 23.67478 -78.73367 38029 ft 431 kts 348°
2026-05-08 13:06 23.73384 -78.74490 38029 ft 430 kts 348°
2026-05-08 13:07 23.79254 -78.75608 38029 ft 430 kts 348°
2026-05-08 13:07 23.85179 -78.76739 38029 ft 431 kts 348°
2026-05-08 13:08 23.91097 -78.77868 38029 ft 431 kts 348°
2026-05-08 13:08 23.96999 -78.79085 38028 ft 430 kts 344°
2026-05-08 13:09 24.02603 -78.81315 38029 ft 428 kts 332°
2026-05-08 13:09 24.07740 -78.84465 38029 ft 425 kts 327°
2026-05-08 13:10 24.12773 -78.87855 38029 ft 425 kts 327°
2026-05-08 13:10 24.17813 -78.91266 38029 ft 425 kts 327°
2026-05-08 13:11 24.22867 -78.94649 38029 ft 426 kts 327°
2026-05-08 13:11 24.27934 -78.98020 37911 ft 422 kts 327°
2026-05-08 13:12 24.30431 -78.99678 37646 ft 413 kts 327°
2026-05-08 13:12 24.32879 -79.01304 37232 ft 408 kts 327°
2026-05-08 13:12 24.35280 -79.02898 36710 ft 408 kts 327°
2026-05-08 13:12 24.37708 -79.04513 36126 ft 408 kts 327°
2026-05-08 13:13 24.40127 -79.06121 35501 ft 407 kts 327°
2026-05-08 13:13 24.42559 -79.07739 34844 ft 407 kts 327°
2026-05-08 13:13 24.44984 -79.09354 34161 ft 408 kts 327°
2026-05-08 13:13 24.47406 -79.10967 33472 ft 408 kts 327°
2026-05-08 13:14 24.49821 -79.12575 32790 ft 408 kts 327°
2026-05-08 13:14 24.52250 -79.14194 32105 ft 409 kts 326°
2026-05-08 13:14 24.54671 -79.15807 31393 ft 411 kts 326°
2026-05-08 13:14 24.57130 -79.17448 30765 ft 411 kts 326°
2026-05-08 13:15 24.59573 -79.19079 30233 ft 420 kts 326°
2026-05-08 13:15 24.62098 -79.20767 29641 ft 425 kts 326°
2026-05-08 13:15 24.64619 -79.22450 29044 ft 423 kts 326°
2026-05-08 13:15 24.67117 -79.24117 28459 ft 420 kts 326°
2026-05-08 13:16 24.69592 -79.25770 27872 ft 417 kts 326°
2026-05-08 13:16 24.72054 -79.27414 27283 ft 415 kts 326°
2026-05-08 13:16 24.74497 -79.29047 26693 ft 412 kts 326°
2026-05-08 13:16 24.76952 -79.30690 26096 ft 410 kts 326°
2026-05-08 13:17 24.79358 -79.32301 25507 ft 407 kts 326°
2026-05-08 13:17 24.81780 -79.33923 24915 ft 404 kts 327°
2026-05-08 13:17 24.84174 -79.35529 24329 ft 402 kts 327°
2026-05-08 13:17 24.86556 -79.37126 23742 ft 399 kts 327°
2026-05-08 13:18 24.88927 -79.38718 23155 ft 397 kts 327°
2026-05-08 13:18 24.91254 -79.40280 22577 ft 394 kts 327°
2026-05-08 13:18 24.93591 -79.41849 21993 ft 392 kts 327°
2026-05-08 13:18 24.95905 -79.43404 21415 ft 389 kts 327°
2026-05-08 13:19 24.98210 -79.44953 20838 ft 387 kts 327°
2026-05-08 13:19 25.00492 -79.46488 20263 ft 385 kts 327°
2026-05-08 13:19 25.02761 -79.48016 19691 ft 382 kts 327°
2026-05-08 13:19 25.05037 -79.49548 19118 ft 380 kts 327°
2026-05-08 13:20 25.07275 -79.51056 18552 ft 378 kts 327°
2026-05-08 13:20 25.09514 -79.52567 17982 ft 376 kts 327°
2026-05-08 13:20 25.11744 -79.54072 17414 ft 373 kts 328°
2026-05-08 13:20 25.13946 -79.55558 16855 ft 371 kts 328°
2026-05-08 13:21 25.16129 -79.57033 16291 ft 369 kts 328°
2026-05-08 13:21 25.18338 -79.58524 15725 ft 367 kts 328°
2026-05-08 13:21 25.20506 -79.59988 15166 ft 365 kts 328°
2026-05-08 13:21 25.22651 -79.61437 14609 ft 364 kts 328°
2026-05-08 13:22 25.24811 -79.62895 14059 ft 362 kts 328°
2026-05-08 13:22 25.26965 -79.64352 13495 ft 361 kts 328°
2026-05-08 13:22 25.29116 -79.65807 12941 ft 360 kts 328°
2026-05-08 13:22 25.31243 -79.67246 12368 ft 359 kts 328°
2026-05-08 13:23 25.33385 -79.68696 11782 ft 359 kts 328°
2026-05-08 13:23 25.35501 -79.70129 11219 ft 358 kts 329°
2026-05-08 13:23 25.37602 -79.71551 10671 ft 357 kts 329°
2026-05-08 13:23 25.39701 -79.72997 10325 ft 348 kts 328°
2026-05-08 13:24 25.41671 -79.74479 10198 ft 334 kts 325°
2026-05-08 13:24 25.43531 -79.75960 10004 ft 324 kts 325°
2026-05-08 13:24 25.45347 -79.77426 9567 ft 323 kts 325°
2026-05-08 13:24 25.47153 -79.78873 9131 ft 321 kts 325°
2026-05-08 13:25 25.48948 -79.80296 8716 ft 319 kts 325°
2026-05-08 13:25 25.50759 -79.81722 8303 ft 316 kts 326°
2026-05-08 13:25 25.52548 -79.83125 7894 ft 314 kts 325°
2026-05-08 13:25 25.54331 -79.84524 7482 ft 310 kts 325°
2026-05-08 13:26 25.56078 -79.85893 7090 ft 309 kts 325°
2026-05-08 13:26 25.57748 -79.87377 6687 ft 310 kts 316°
2026-05-08 13:26 25.59088 -79.89256 6286 ft 310 kts 301°
2026-05-08 13:26 25.60049 -79.91358 5996 ft 302 kts 295°
2026-05-08 13:27 25.60923 -79.93394 5976 ft 280 kts 297°
2026-05-08 13:27 25.61818 -79.95237 5981 ft 270 kts 300°
2026-05-08 13:27 25.62772 -79.97050 5981 ft 270 kts 301°
2026-05-08 13:27 25.63708 -79.98817 5902 ft 261 kts 301°
2026-05-08 13:28 25.64604 -80.00537 5562 ft 258 kts 300°
2026-05-08 13:28 25.65487 -80.02251 5198 ft 255 kts 300°
2026-05-08 13:28 25.66369 -80.03957 4855 ft 252 kts 300°
2026-05-08 13:28 25.67242 -80.05641 4508 ft 249 kts 301°
2026-05-08 13:29 25.68093 -80.07286 4174 ft 247 kts 300°
2026-05-08 13:29 25.68939 -80.08922 3837 ft 243 kts 300°
2026-05-08 13:29 25.69775 -80.10540 3508 ft 238 kts 300°
2026-05-08 13:29 25.70573 -80.12085 3192 ft 228 kts 300°
2026-05-08 13:30 25.71351 -80.13590 2887 ft 218 kts 300°
2026-05-08 13:30 25.72095 -80.15031 2598 ft 212 kts 300°
2026-05-08 13:30 25.72820 -80.16436 2333 ft 206 kts 300°
2026-05-08 13:30 25.73514 -80.17781 2043 ft 197 kts 300°
2026-05-08 13:31 25.74165 -80.19044 1793 ft 180 kts 300°
2026-05-08 13:31 25.74770 -80.20217 1563 ft 167 kts 301°
2026-05-08 13:31 25.75324 -80.21291 1390 ft 158 kts 301°
2026-05-08 13:31 25.75868 -80.22347 1149 ft 152 kts 301°
2026-05-08 13:32 25.76386 -80.23353 952 ft 150 kts 301°
2026-05-08 13:32 25.76909 -80.24365 758 ft 150 kts 301°
2026-05-08 13:32 25.77428 -80.25375 578 ft 152 kts 301°
2026-05-08 13:32 25.77955 -80.26402 395 ft 152 kts 300°
2026-05-08 13:33 25.78487 -80.27425 179 ft 152 kts 301°
2026-05-08 13:33 25.79003 -80.28423 16 ft 144 kts 300°
2026-05-08 13:33 25.79411 -80.29210 13 ft 80 kts 300°
2026-05-08 13:33 25.79597 -80.29575 13 ft 42 kts 300°
2026-05-08 13:34 25.79732 -80.29778 13 ft 29 kts 327°
2026-05-08 13:34 25.79802 -80.29734 13 ft 16 kts 114°
2026-05-08 13:34 25.79746 -80.29624 13 ft 17 kts 120°
2026-05-08 13:34 25.79674 -80.29484 13 ft 24 kts 120°
2026-05-08 13:35 25.79573 -80.29291 13 ft 32 kts 121°
2026-05-08 13:35 25.79453 -80.29048 13 ft 37 kts 118°
2026-05-08 13:35 25.79370 -80.28886 13 ft 18 kts 118°
2026-05-08 13:35 25.79410 -80.28807 13 ft 15 kts 351°
2026-05-08 13:36 25.79513 -80.28808 13 ft 15 kts
2026-05-08 13:36 25.79652 -80.28806 13 ft 23 kts 357°
2026-05-08 13:36 25.79820 -80.28816 13 ft 20 kts 357°
2026-05-08 13:36 25.79927 -80.28782 13 ft 16 kts 67°
2026-05-08 13:37 25.79939 -80.28649 13 ft 21 kts 87°
2026-05-08 13:37 25.79948 -80.28444 13 ft 30 kts 87°
2026-05-08 13:37 25.79957 -80.28215 13 ft 20 kts 91°
2026-05-08 13:37 25.79940 -80.28139 13 ft 4 kts 160°
2026-05-08 13:38 25.79911 -80.28138 13 ft 4 kts 204°
2026-05-08 13:38 25.79892 -80.28181 13 ft 6 kts 264°
2026-05-08 13:38 25.79873 -80.28212 13 ft 5 kts 187°
2026-05-08 13:38 25.79838 -80.28213 13 ft 4 kts 180°
2026-05-08 13:39 25.79826 -80.28213 13 ft 0 kts 180°